GFSCGP_925_rhum_105.txt.gz
RH
29 36 37 31 30 25 32 32 32 37 32 31 32 30 28 24 24 24 22 20 18 20 19 24 26 29 33 32 63 82 90 97 100 100 99 100 100 99 100 98 93 95 99 98
32 48 31 25 33 31 32 34 36 36 31 31 29 28 21 19 17 15 15 15 17 23 24 27 30 40 57 54 74 86 91 99 99 100 100 99 100 100 99 95 91 97 99 100
40 24 24 25 29 37 36 38 37 36 28 22 23 18 12 15 16 16 18 20 25 27 31 38 37 35 52 70 82 89 89 99 96 100 100 100 100 98 100 98 99 99 100 97
34 25 29 32 27 28 32 32 33 35 32 32 22 18 18 17 17 20 19 23 27 42 41 40 41 40 42 63 83 88 90 99 99 100 100 98 91 92 96 98 99 100 100 98
45 46 37 33 28 30 29 30 30 30 28 24 24 30 26 24 22 21 23 38 49 48 46 46 44 43 48 64 83 87 97 96 99 100 99 97 93 94 99 100 100 100 98 100
36 27 35 35 28 25 23 27 31 34 31 45 33 30 28 23 22 30 46 50 52 51 48 46 45 45 46 78 84 90 98 96 99 100 99 98 99 92 91 93 99 100 100 100
27 28 27 26 32 26 31 38 49 64 54 48 34 33 26 28 39 51 52 48 50 50 50 49 47 47 48 55 84 89 96 96 99 100 100 99 100 95 93 100 100 100 100 100
27 24 22 24 29 33 34 36 40 47 60 44 44 41 31 36 54 53 49 49 51 52 52 48 47 48 48 53 77 86 89 92 97 99 100 99 99 93 90 95 98 100 97 99
40 33 23 26 20 25 36 39 35 43 48 50 40 42 36 61 60 58 54 56 56 55 53 51 48 49 50 55 76 86 87 92 96 99 100 100 98 93 89 98 100 99 99 100
52 44 35 33 23 25 30 32 42 47 53 50 41 43 36 52 46 55 50 56 56 56 50 51 51 50 56 62 78 89 90 93 98 100 100 100 99 97 96 100 99 98 98 98
74 53 44 34 35 31 30 30 38 39 46 38 43 34 36 45 44 48 56 63 61 65 61 57 55 58 70 76 82 87 90 92 97 100 99 100 100 100 100 100 100 100 97 98
82 79 65 44 36 46 33 34 31 38 48 47 39 35 46 50 48 58 62 66 66 66 63 68 68 72 76 75 86 89 91 92 97 97 100 100 100 100 100 100 100 100 94 98
76 85 75 59 64 47 58 54 41 48 47 40 47 40 52 60 63 64 65 63 72 67 63 80 79 79 80 84 88 91 93 94 98 98 100 99 100 100 100 100 100 100 100 99
72 81 82 60 69 72 63 55 55 51 54 46 43 40 55 66 72 75 76 66 74 74 74 84 86 84 87 93 91 90 94 96 99 99 99 100 100 100 100 100 100 99 99 100
87 92 82 75 76 76 65 57 55 52 48 50 48 52 44 68 77 83 76 76 80 82 81 88 92 91 87 93 93 93 96 98 97 98 97 99 99 99 100 100 99 98 98 96
94 92 92 83 72 67 57 52 61 61 54 58 54 52 73 70 78 80 86 84 88 88 83 85 87 90 89 91 96 100 99 100 96 95 98 98 100 100 100 100 98 98 96 94
98 89 80 66 70 60 51 51 54 64 77 76 63 73 72 79 92 94 91 88 91 88 88 90 89 92 93 93 97 100 100 100 99 99 99 97 95 99 100 100 98 95 94 93
93 88 78 72 69 68 79 74 60 67 77 78 70 78 74 85 89 88 84 90 91 88 88 91 91 93 97 96 96 98 100 100 100 100 100 98 98 97 97 98 98 98 94 95
78 81 81 76 73 56 66 81 80 81 86 82 92 83 75 71 83 95 84 82 87 87 87 90 97 99 98 98 99 98 98 99 99 100 100 100 100 100 100 100 98 96 98 98
86 82 76 82 71 72 77 85 73 74 84 79 83 87 80 65 92 97 86 82 85 88 95 92 97 97 95 99 99 96 97 98 99 100 100 100 100 100 99 100 100 99 99 98
85 95 92 71 70 58 84 79 75 80 88 94 85 92 92 95 95 88 80 83 94 98 94 94 94 95 95 94 92 93 96 98 99 100 100 100 100 100 100 100 100 100 100 100
83 87 85 78 78 71 86 78 73 95 91 85 88 88 91 85 83 82 82 83 94 95 98 99 94 95 94 95 89 91 95 98 100 100 100 100 100 100 100 100 100 100 100 100
95 96 98 80 85 91 87 91 81 77 82 84 86 80 77 81 84 83 86 84 94 97 98 99 98 93 95 95 95 92 94 96 99 100 100 100 100 100 100 100 100 100 99 99
90 97 100 100 97 97 94 84 75 73 78 76 74 73 72 82 80 82 81 83 89 97 97 99 98 94 96 97 96 99 97 94 95 98 99 100 100 100 100 100 100 100 100 100
96 98 98 100 100 100 100 100 97 87 78 73 72 73 74 74 80 80 82 82 86 95 98 98 98 98 98 98 98 99 99 93 93 94 95 98 98 98 100 100 100 100 100 100
94 96 95 96 100 99 100 99 96 93 79 74 74 74 74 73 76 74 82 86 88 90 92 92 94 95 99 100 100 100 100 98 94 94 97 98 94 94 95 95 99 100 100 100

GFSCGP_925_rhum_108.txt.gz
RH
15 21 24 17 22 20 19 19 20 17 19 23 23 20 18 16 18 19 18 16 15 15 12 11 18 23 26 26 29 29 38 57 68 91 98 99 100 100 100 100 98 94 96 100
18 23 14 14 17 25 29 35 23 16 23 26 21 19 16 16 16 15 13 11 10 10 9 16 24 29 32 35 36 41 47 60 69 91 96 91 99 100 100 99 99 98 99 100
21 14 14 18 22 28 33 36 33 22 18 21 21 18 14 11 9 9 8 9 9 12 16 22 28 31 34 36 40 45 49 57 68 75 95 92 100 99 100 99 99 96 99 100
19 18 18 24 27 27 28 20 20 27 42 26 14 17 12 11 12 11 12 14 16 23 29 28 30 31 34 38 42 48 52 56 68 72 93 90 92 90 89 95 99 100 98 99
30 22 28 27 24 22 24 16 22 25 26 24 16 17 11 15 14 14 14 19 27 31 32 32 33 33 34 36 51 56 59 62 73 73 91 89 74 71 74 78 87 99 96 96
25 27 20 20 25 22 22 27 24 23 23 28 18 14 13 14 15 16 24 31 34 34 33 31 30 32 33 38 46 61 65 66 80 88 90 85 71 66 72 82 94 100 98 98
23 29 27 28 31 31 22 28 42 48 44 32 22 22 16 17 19 20 28 29 30 31 32 32 30 31 35 39 44 55 66 68 82 97 93 84 74 75 72 75 82 92 97 99
28 32 25 25 29 30 28 28 28 45 39 30 28 32 21 16 23 32 28 28 30 31 32 30 30 32 36 40 44 52 62 70 83 98 95 85 85 75 71 72 74 85 90 89
23 21 18 18 21 21 31 37 22 35 34 38 28 27 32 33 36 35 31 30 30 31 31 34 36 38 42 48 54 55 66 71 84 98 99 96 92 75 71 73 76 81 83 92
40 33 18 19 17 16 21 20 38 31 35 32 18 22 22 39 36 36 32 29 34 36 40 41 41 46 48 50 64 64 67 77 85 98 100 99 93 78 73 76 91 90 94 90
56 38 39 28 27 23 24 31 29 25 27 26 24 25 24 24 29 32 30 35 40 46 45 43 47 51 52 57 76 62 72 79 86 95 100 99 88 80 78 81 94 96 87 85
67 66 43 36 40 22 16 20 24 33 33 31 27 25 31 35 35 36 39 44 45 49 44 43 49 56 57 69 86 67 77 82 85 97 99 94 89 82 82 87 96 99 91 90
79 67 44 44 47 39 37 30 22 26 29 34 39 36 37 40 41 46 48 46 47 53 52 50 53 59 66 78 80 87 89 87 95 98 99 99 98 86 88 90 93 96 92 89
70 63 67 50 47 44 48 40 36 35 39 30 28 26 36 38 44 48 54 65 70 66 61 66 68 66 77 82 85 92 93 94 98 99 99 99 100 92 92 90 92 94 96 96
85 71 63 51 51 54 47 43 37 36 35 41 28 32 34 47 52 65 68 68 69 70 68 72 77 78 82 84 87 90 98 100 99 99 99 100 100 92 86 87 90 90 91 96
92 72 74 60 47 54 52 40 38 35 37 38 35 36 49 58 66 73 73 73 76 78 74 71 78 80 86 89 91 92 100 100 99 99 99 99 99 94 90 88 88 92 92 89
86 77 63 55 47 49 51 42 36 38 43 47 48 56 56 62 81 86 80 78 81 82 78 78 88 92 94 96 98 97 100 100 100 100 99 95 92 95 94 90 88 89 90 87
85 72 61 57 48 64 59 51 44 38 48 50 58 68 58 77 86 82 79 84 85 83 85 83 85 96 99 99 98 99 100 100 100 100 100 100 98 95 90 92 90 87 84 84
53 66 68 65 50 38 38 84 63 54 80 77 89 75 60 75 82 92 80 78 85 85 87 92 89 98 100 100 100 100 97 99 99 99 100 99 100 100 100 97 93 90 89 87
60 64 70 52 56 56 83 93 59 60 90 77 79 78 72 65 97 96 80 81 82 88 90 98 89 98 100 99 97 100 96 96 99 100 100 99 100 100 100 100 100 100 95 95
76 92 85 65 57 40 66 71 71 81 94 87 79 82 80 90 93 84 75 78 85 96 98 99 92 95 98 99 95 96 96 99 99 98 100 100 100 100 100 100 100 100 100 100
64 71 69 62 63 60 76 62 83 93 79 77 79 78 80 82 81 80 79 81 88 91 95 100 98 93 100 96 90 91 95 96 91 98 100 100 100 100 100 100 100 100 100 100
87 79 92 89 94 89 82 88 73 67 70 70 71 70 71 74 78 78 81 81 90 96 97 99 97 95 93 90 92 88 90 91 93 96 99 100 100 100 100 100 100 100 100 100
70 88 90 97 100 98 98 95 80 63 65 61 60 63 65 75 73 73 75 78 86 95 96 98 97 94 93 98 89 96 90 86 85 89 93 98 100 100 100 100 100 100 100 100
81 80 99 100 100 99 94 96 95 80 67 62 60 61 63 64 70 69 71 75 79 89 96 98 97 97 97 98 96 89 88 84 84 84 86 90 96 98 100 100 100 100 100 100
81 96 94 96 100 96 95 94 84 84 74 61 60 62 63 63 64 64 68 71 75 81 84 91 96 95 97 97 98 98 96 95 87 86 89 88 87 92 94 95 99 99 99 97

GFSCGP_925_rhum_114.txt.gz
RH
47 28 26 22 26 23 22 21 23 20 16 18 19 17 14 12 14 14 15 15 15 16 14 13 12 12 14 15 17 17 21 39 56 68 76 74 70 74 70 71 72 84 92 96
73 63 20 18 15 20 20 21 22 19 17 25 28 30 18 15 15 15 15 15 16 15 14 14 14 16 17 18 22 22 22 22 40 59 64 67 69 72 73 75 74 81 88 94
89 52 18 19 14 15 18 21 23 23 31 44 32 37 21 16 15 14 14 15 15 16 16 15 16 22 21 24 26 27 27 27 29 29 50 57 76 86 86 82 73 79 81 82
82 57 23 19 17 11 19 14 18 22 35 73 34 40 23 18 17 14 13 13 15 15 14 12 17 28 24 25 27 32 35 35 33 33 39 66 88 89 90 92 87 82 80 81
84 71 27 18 14 10 14 14 17 22 34 48 41 40 29 22 24 22 14 12 13 14 13 14 22 22 22 24 27 33 39 43 41 39 43 71 82 79 82 90 91 84 81 83
70 44 36 15 10 9 11 20 24 28 35 54 40 37 31 25 24 22 13 10 14 20 24 23 22 21 21 22 30 34 36 37 42 44 44 66 81 80 80 85 90 90 90 88
39 40 34 20 15 11 19 27 50 64 56 58 32 35 30 17 14 15 13 12 25 26 26 24 23 22 28 31 33 36 37 39 40 45 48 57 74 84 79 75 82 83 93 94
29 86 54 28 18 17 26 28 50 55 55 43 26 34 25 16 12 11 17 24 25 26 29 26 28 36 38 40 43 46 48 48 44 50 51 54 65 86 79 76 71 83 87 94
65 43 44 34 18 20 27 35 30 41 49 54 30 25 18 13 18 20 24 26 27 25 27 30 33 39 42 43 46 51 53 54 54 56 59 61 68 81 80 76 74 78 76 83
63 82 41 46 20 19 24 25 43 40 52 61 74 29 37 20 26 28 32 23 23 23 30 32 37 42 41 44 49 54 56 59 65 75 72 70 73 74 84 84 73 70 73 76
54 61 51 24 49 37 32 28 28 29 32 38 50 64 37 25 31 54 24 26 44 46 46 44 42 42 46 49 51 56 62 70 77 83 89 74 80 79 87 86 77 69 72 73
60 77 72 32 14 14 18 23 25 40 36 26 33 44 41 37 25 26 58 49 56 51 49 47 48 49 51 53 55 60 67 74 85 90 86 81 83 80 89 87 78 72 73 77
65 82 88 56 38 15 16 14 16 23 25 38 47 32 52 48 63 51 58 54 53 53 52 50 50 53 56 59 61 67 72 80 90 95 98 91 92 83 93 94 80 75 76 78
62 67 96 98 99 71 37 13 12 18 34 31 42 45 44 68 68 62 62 57 57 58 56 56 58 60 62 66 70 76 80 84 92 96 100 98 94 92 94 96 82 79 76 76
52 75 72 56 47 86 88 67 33 18 23 30 61 57 69 80 86 65 58 58 61 62 60 60 65 68 68 73 80 83 88 91 95 100 100 100 95 98 97 94 84 78 85 79
46 77 65 48 27 44 74 70 64 66 50 39 38 45 81 74 60 66 66 67 68 65 64 67 71 73 75 82 89 91 93 96 99 100 100 99 100 100 100 92 87 83 87 86
54 77 67 49 34 31 35 31 30 24 23 29 48 71 73 66 73 76 73 70 72 71 71 76 80 80 86 92 96 96 96 97 99 100 100 100 100 100 100 92 93 92 89 89
55 56 57 64 49 50 58 55 56 46 57 55 58 62 64 75 76 74 69 72 74 75 78 83 83 87 93 97 99 99 98 98 99 100 100 100 100 100 100 97 96 94 90 88
41 55 67 66 60 38 74 64 73 83 94 74 64 66 72 73 77 88 66 65 73 76 80 87 91 93 98 100 100 100 98 99 99 100 100 100 100 100 100 98 95 94 94 92
42 46 56 60 65 66 77 53 46 54 100 100 80 65 66 73 97 95 67 66 69 79 88 95 96 97 98 100 100 100 99 99 99 100 100 100 100 100 100 98 96 95 98 100
62 62 68 58 56 86 76 59 46 77 100 97 90 76 75 84 82 74 66 69 74 85 88 92 87 94 99 100 100 99 99 98 99 100 99 100 99 100 100 100 100 100 100 100
75 84 90 86 70 89 86 61 89 98 95 94 82 68 70 68 68 69 67 73 83 87 92 93 92 96 100 100 100 99 99 99 99 100 100 100 99 99 100 100 100 100 100 100
82 69 79 98 98 99 89 97 92 77 67 60 60 58 59 61 63 66 70 74 86 92 93 97 98 96 98 99 100 98 100 98 98 99 100 98 96 98 97 100 99 99 100 100
64 53 79 80 89 84 92 96 96 92 76 54 51 52 53 59 56 58 62 66 81 92 94 93 96 97 97 98 98 99 99 98 98 98 99 98 98 99 97 97 97 97 98 100
66 65 92 96 81 84 86 99 100 95 75 62 54 54 54 52 55 56 60 61 65 77 89 92 94 94 97 98 98 98 99 99 98 98 98 97 98 99 98 99 98 99 100 98
73 95 90 91 96 100 100 100 98 95 94 62 53 52 54 54 55 55 60 62 63 69 74 82 87 93 97 98 99 99 97 97 98 96 98 99 96 95 97 96 99 100 100 97

GFSCGP_925_rhum_117.txt.gz
RH
38 36 53 50 36 27 26 30 25 25 21 23 23 21 18 18 16 17 18 17 18 16 15 14 14 12 12 13 14 25 65 67 72 73 72 75 72 68 67 72 72 83 79 80
49 54 33 32 50 41 28 28 31 24 21 25 24 32 20 24 19 15 16 20 20 22 20 14 14 17 18 22 23 31 59 69 71 69 69 75 72 74 73 70 70 76 86 84
57 61 32 34 54 64 28 27 27 30 41 44 40 42 39 28 20 18 15 16 20 22 21 20 27 28 26 27 26 26 31 55 66 60 66 76 75 78 81 75 74 78 80 79
70 51 65 54 51 58 31 21 20 23 29 67 43 56 40 33 25 21 19 16 19 20 20 18 33 38 30 28 30 33 34 36 41 47 66 69 71 82 78 78 76 78 82 84
64 62 91 99 67 42 27 22 19 20 40 70 58 68 46 30 28 24 22 21 16 18 16 23 32 33 27 31 35 37 38 40 40 41 44 62 68 70 75 84 82 78 71 82
66 50 64 74 53 34 20 22 23 42 64 94 55 55 48 33 27 23 21 19 18 20 27 29 30 39 49 47 47 47 46 45 43 44 48 56 69 71 85 88 90 85 79 80
33 37 39 51 56 41 21 22 65 91 90 79 41 48 42 28 22 21 20 19 28 26 29 34 46 51 51 54 51 51 50 50 45 48 52 51 69 67 81 80 88 94 78 83
63 84 61 48 58 36 25 45 79 91 78 58 32 52 40 26 22 21 18 30 34 34 39 48 50 50 50 55 54 53 53 54 53 56 59 61 60 82 80 78 81 87 86 86
80 66 54 48 55 51 36 42 39 61 53 69 43 30 24 23 25 26 30 33 38 41 47 48 48 49 53 55 56 56 58 60 60 61 64 66 74 72 82 78 73 75 90 93
68 78 58 71 64 30 29 29 64 77 88 86 78 43 42 38 43 52 74 60 56 54 52 53 55 56 56 56 58 60 64 68 70 73 80 84 87 83 90 72 69 67 86 95
66 75 62 59 61 45 40 38 48 73 53 66 95 87 45 49 41 68 80 82 75 61 59 58 57 58 61 63 64 67 72 74 77 81 86 89 88 94 91 76 66 74 88 92
65 85 90 55 47 33 43 49 38 57 60 46 69 89 61 71 67 71 74 70 68 60 61 60 60 63 65 68 70 75 79 82 85 86 89 91 91 97 86 76 69 81 85 84
72 84 94 70 53 54 59 39 30 36 44 38 62 81 71 76 81 68 69 68 65 64 62 62 66 68 69 72 77 80 83 87 91 93 94 94 91 100 86 77 78 83 87 86
63 76 97 94 92 98 87 66 47 32 45 43 59 78 93 84 82 82 71 69 66 64 66 68 72 74 75 78 83 86 88 91 93 95 97 97 93 100 87 82 83 91 84 84
59 83 73 68 60 99 97 69 62 58 45 39 65 85 95 94 94 86 72 65 69 71 71 74 78 78 78 83 88 91 94 95 95 96 97 98 97 100 95 89 90 93 89 83
57 80 76 72 49 57 62 68 58 58 57 55 67 95 81 85 82 80 74 71 76 77 76 78 78 78 83 88 92 97 98 96 97 96 96 98 100 100 99 95 92 100 88 78
68 75 82 76 55 55 95 98 87 86 89 63 86 95 78 83 82 82 77 78 80 81 82 83 84 85 90 95 98 98 98 95 98 97 96 97 99 100 100 100 99 100 93 83
72 66 72 86 71 78 87 58 68 93 96 95 92 94 91 89 77 74 74 80 83 82 86 88 89 90 96 99 99 99 96 96 95 96 99 100 100 100 99 100 100 100 95 92
58 63 88 87 85 72 69 75 81 90 100 100 97 85 80 78 76 81 70 72 82 85 87 92 94 95 99 100 100 100 97 97 96 97 100 100 100 100 100 100 100 100 100 99
58 67 81 85 78 96 91 82 66 69 98 98 96 99 88 81 97 97 74 76 81 85 90 96 98 94 98 100 100 100 100 100 99 100 100 100 100 100 100 100 100 100 100 100
88 85 90 92 86 95 92 80 68 81 100 91 97 98 79 90 87 76 73 79 83 89 93 96 98 99 100 100 98 99 100 99 100 100 99 100 100 100 100 100 100 100 100 100
92 92 100 90 87 93 97 77 93 98 95 91 92 86 76 75 75 72 77 81 85 89 94 96 96 97 98 100 100 99 99 100 100 99 98 98 100 99 96 100 100 100 100 100
97 82 99 97 97 98 96 100 99 95 83 69 63 62 63 63 69 70 77 80 87 94 97 98 97 96 97 100 100 99 100 100 100 99 98 98 98 98 100 96 99 99 99 100
75 75 93 96 90 93 89 89 96 95 96 71 61 60 56 62 62 65 69 75 90 98 97 98 96 94 97 100 100 100 99 97 99 98 98 97 97 98 99 98 99 98 100 99
88 81 98 93 91 96 92 98 97 91 86 70 65 70 69 61 62 64 66 68 74 89 97 96 98 97 100 100 100 100 100 98 99 98 98 98 97 97 97 98 99 100 100 98
82 92 86 92 95 98 97 100 94 91 91 74 65 63 57 58 61 63 68 70 73 83 92 93 95 97 100 100 100 100 99 99 100 98 98 98 97 97 97 97 97 98 98 98

GFSCGP_925_rhum_123.txt.gz
RH
46 58 66 57 46 38 40 46 50 45 36 39 37 31 26 22 21 18 22 21 23 20 20 17 14 14 15 18 46 58 66 67 83 91 90 94 94 85 83 79 76 77 73 76
53 70 46 46 48 51 52 55 54 42 34 41 46 44 29 23 24 18 20 20 24 23 23 21 18 15 14 17 18 43 56 64 75 86 84 83 89 91 84 81 76 76 78 81
59 48 43 45 50 58 58 65 61 58 48 39 49 54 35 24 24 21 17 20 18 24 22 20 21 20 18 18 22 22 37 56 71 82 86 83 90 87 95 93 86 83 85 85
65 50 50 50 54 48 71 48 54 91 91 85 44 65 45 38 39 34 21 21 24 24 23 24 47 58 66 72 69 74 72 80 88 89 94 87 90 86 78 68 74 76 78 86
69 60 67 78 68 51 72 58 84 74 71 62 64 70 55 44 49 39 31 24 24 24 39 66 64 64 66 67 70 73 78 81 90 93 93 95 93 92 90 80 81 78 78 85
60 45 48 53 46 54 61 71 77 68 73 94 64 64 70 53 42 36 32 30 62 65 64 62 59 60 64 64 64 62 56 58 55 58 60 65 71 72 85 96 92 88 89 86
62 65 50 47 74 60 71 70 92 92 97 84 45 57 51 41 47 47 49 64 62 60 65 66 70 71 72 73 70 68 70 70 59 50 48 48 48 49 53 62 92 98 96 96
91 85 57 49 69 71 82 64 74 87 90 75 55 65 65 57 34 52 57 64 68 76 74 75 75 73 73 76 77 75 73 71 64 58 54 52 51 51 53 58 68 93 99 95
81 78 45 48 48 69 68 90 49 56 85 94 76 60 75 75 74 78 79 79 80 76 80 78 74 73 74 76 80 80 78 79 76 72 64 57 52 53 53 57 61 67 96 97
75 88 53 52 64 68 77 55 66 76 96 83 86 92 91 92 86 84 86 85 82 77 76 73 72 75 77 79 80 83 83 85 86 84 81 80 76 70 70 68 72 76 78 97
70 88 67 58 96 95 85 92 84 78 93 96 96 94 80 92 94 95 89 85 84 82 78 75 74 76 80 82 84 87 89 88 86 86 89 88 86 86 84 82 79 83 89 89
56 85 90 64 59 57 67 93 89 99 88 94 97 99 97 93 89 89 89 82 81 80 77 75 74 77 79 85 88 92 96 97 91 87 84 84 82 83 87 87 87 91 93 99
61 80 97 67 58 54 82 72 85 92 97 94 97 98 97 97 96 96 96 95 94 84 80 79 76 78 80 85 89 92 95 95 94 94 94 94 93 95 95 92 90 90 91 100
60 80 87 95 82 93 98 83 76 86 95 79 97 99 100 100 100 100 100 98 94 89 85 83 84 84 85 88 91 93 94 95 97 95 93 93 95 98 100 96 94 95 93 100
66 88 76 70 65 94 100 96 93 90 90 92 100 99 100 100 100 100 100 94 98 96 90 89 87 84 87 89 91 94 96 95 98 98 98 96 95 98 100 99 98 94 98 100
67 85 80 77 63 88 80 81 82 79 93 95 95 98 100 95 83 88 89 99 92 90 91 89 84 83 89 92 96 97 97 95 97 96 96 97 97 97 98 100 99 96 97 100
76 86 88 79 63 98 84 98 97 94 94 98 100 100 100 95 92 94 91 89 92 91 90 90 86 90 92 95 97 99 99 98 97 95 96 97 98 98 98 100 100 98 96 100
76 81 84 94 81 89 97 94 100 99 98 99 100 100 99 94 93 88 86 89 91 90 90 90 89 91 99 99 100 100 99 97 97 97 98 99 99 99 99 100 100 100 99 100
70 81 93 93 91 93 70 79 96 99 99 95 95 98 98 89 79 89 82 81 86 86 86 89 92 97 100 100 99 97 95 97 98 99 100 100 100 100 100 100 100 100 100 98
74 79 86 91 89 95 92 79 74 91 97 95 92 96 88 78 92 94 84 78 81 85 90 94 96 98 100 100 100 98 98 97 99 100 100 100 100 100 100 100 100 100 100 100
90 88 97 94 95 92 94 82 79 86 100 95 88 96 85 93 96 91 77 79 80 86 93 93 95 98 100 100 100 98 99 99 100 100 100 100 100 100 100 100 100 100 99 99
88 89 88 86 85 90 90 77 93 99 98 96 87 83 88 85 84 82 81 82 83 91 94 98 98 96 100 100 100 98 99 100 100 100 99 100 100 100 100 100 100 100 96 98
99 96 86 96 97 94 95 100 100 99 96 99 94 78 73 81 82 82 86 86 90 93 96 96 100 100 100 100 100 100 100 99 100 97 99 100 100 99 100 100 100 100 100 98
88 85 92 95 93 90 88 79 82 89 89 84 93 82 72 83 81 84 83 86 88 96 99 96 98 99 99 100 100 100 100 99 95 98 98 99 100 100 100 98 98 97 99 98
90 84 90 88 92 90 86 81 86 80 89 79 74 79 74 81 92 90 88 82 89 91 95 97 99 100 100 99 100 100 100 100 96 96 98 99 99 100 100 98 98 98 99 99
82 86 89 99 96 95 94 90 91 95 80 93 89 86 88 81 88 90 90 92 87 93 94 97 100 100 100 100 100 100 100 100 100 99 100 100 100 99 99 98 97 97 98 97

GFSCGP_925_rhum_129.txt.gz
RH
47 49 43 37 42 37 41 43 40 33 29 37 40 38 33 31 32 32 30 28 26 25 20 17 14 15 18 27 64 76 80 78 86 92 94 94 99 100 100 96 98 98 93 91
48 54 44 45 45 48 47 51 48 40 35 42 43 43 36 35 35 32 33 32 31 28 24 22 18 15 18 24 53 72 81 80 83 80 83 81 86 90 88 96 97 96 96 90
55 44 42 46 46 52 50 56 52 53 45 47 50 43 25 22 24 22 23 28 29 28 27 24 20 16 17 27 31 67 76 80 84 78 84 85 95 90 99 98 100 99 96 90
60 49 48 48 50 47 63 43 46 51 70 75 52 77 34 20 24 24 23 25 26 24 22 23 21 17 20 30 33 52 72 80 88 88 90 88 84 82 88 86 98 99 99 98
54 58 63 74 60 50 57 48 52 56 71 83 50 71 30 25 30 30 30 35 60 54 26 21 19 18 69 79 55 66 88 88 96 96 96 93 89 88 92 97 98 100 100 100
56 46 49 53 49 52 45 59 63 68 86 85 54 52 37 44 96 92 75 83 84 66 40 54 66 72 75 80 85 90 92 99 100 100 100 99 98 100 100 100 99 100 100 98
50 52 53 48 59 53 64 70 69 59 70 44 37 47 39 94 95 97 94 95 92 85 84 80 76 74 76 78 78 80 84 87 93 96 98 98 99 100 100 100 100 100 95 74
56 32 52 54 58 56 57 84 78 87 60 55 43 56 70 70 95 97 95 99 89 88 83 82 80 77 80 80 80 79 76 77 80 77 78 71 71 81 86 91 92 98 98 96
60 52 44 36 50 58 97 94 66 91 63 77 54 66 73 61 86 98 98 96 98 90 89 88 87 86 85 83 90 87 81 82 84 87 78 72 71 66 69 64 60 63 70 82
51 72 44 48 56 63 72 68 89 85 90 78 57 86 88 93 95 96 99 98 99 95 87 86 85 86 88 87 88 88 83 83 85 85 87 88 87 77 78 71 68 58 52 51
53 64 53 51 67 57 69 64 75 87 88 91 86 93 100 98 98 98 98 99 97 97 94 87 82 86 88 90 89 87 86 87 87 87 88 87 90 86 78 83 77 65 66 71
53 66 73 51 44 48 53 65 79 93 80 78 86 96 100 100 100 100 98 99 100 100 100 96 89 84 88 91 92 94 92 91 92 92 91 92 92 88 82 80 78 80 80 83
58 75 86 42 55 50 72 67 90 96 100 97 94 94 100 99 98 97 98 99 99 99 98 99 97 97 94 94 96 94 96 95 95 92 90 92 94 97 95 95 97 98 97 94
62 72 77 76 69 89 85 71 82 84 94 94 95 94 93 96 97 96 97 98 98 98 97 97 96 97 98 96 94 94 95 97 94 93 91 92 93 93 93 95 97 99 100 98
55 72 72 66 62 89 97 81 87 92 89 81 93 91 97 98 97 97 96 96 96 94 95 96 96 96 94 95 95 95 96 96 95 92 92 92 93 93 94 96 96 97 99 100
64 73 73 68 70 92 95 86 71 90 86 90 96 90 100 95 80 81 88 93 94 93 93 87 85 90 93 96 96 95 96 97 96 91 91 92 93 94 95 96 95 95 97 98
70 76 78 71 63 97 93 95 96 91 89 92 89 98 99 85 84 89 83 86 88 89 91 90 86 92 97 98 99 98 96 97 96 92 90 94 95 94 95 95 93 95 98 100
72 77 81 75 76 91 98 73 100 97 96 97 93 94 100 92 90 79 78 82 83 82 82 84 91 93 98 98 99 99 99 96 93 92 94 94 96 96 95 95 96 98 99 100
66 74 85 85 80 94 81 81 88 91 93 86 94 86 80 98 95 79 79 77 80 81 86 91 93 95 98 100 99 100 99 95 94 96 97 97 97 96 96 97 98 99 100 100
74 74 81 77 85 86 89 71 74 97 93 91 85 89 86 70 77 86 87 76 73 78 85 89 93 94 97 100 100 100 99 98 98 100 100 100 98 97 96 99 97 97 98 100
74 70 80 78 83 90 85 76 72 91 96 91 91 93 90 82 88 92 84 78 78 81 86 90 90 94 99 100 100 99 99 99 100 95 100 100 100 99 98 98 97 95 95 96
73 70 72 69 81 82 78 64 78 98 96 85 90 92 93 91 89 85 76 74 78 85 91 92 90 92 99 100 99 97 99 100 100 100 98 100 100 100 100 100 99 95 94 93
89 74 72 74 84 90 84 87 88 84 80 84 84 84 86 80 81 78 78 77 81 90 95 96 97 93 95 100 97 96 100 100 100 100 99 97 96 99 100 100 99 96 94 93
80 78 86 83 90 89 87 82 78 80 79 80 81 79 77 80 77 74 72 74 80 92 93 98 96 95 97 100 100 100 100 99 99 100 100 100 100 100 100 100 98 96 96 93
76 76 88 91 94 89 86 85 83 83 80 80 79 78 77 73 77 74 74 77 79 82 87 93 96 96 99 100 99 100 100 99 96 98 99 100 97 100 100 99 99 98 98 99
76 84 86 81 91 84 92 92 86 88 84 80 76 76 77 76 75 75 78 80 81 82 83 84 89 93 98 96 97 100 100 98 97 94 95 98 97 96 98 98 97 100 98 99

GFSCGP_925_rhum_132.txt.gz
RH
33 26 20 20 24 24 26 25 21 17 18 30 30 27 23 18 16 16 16 16 16 16 13 14 15 16 16 15 13 14 23 57 73 84 90 81 86 94 79 73 80 77 98 99
33 27 27 29 31 32 29 29 26 21 24 30 30 32 23 16 13 14 17 20 18 16 15 15 16 17 18 18 16 14 20 49 67 74 79 73 72 70 77 81 78 83 99 99
35 28 35 36 30 34 30 31 30 32 31 30 35 24 12 15 14 30 40 41 39 36 29 24 18 18 17 19 20 17 16 38 60 65 68 67 66 60 65 66 68 76 84 97
40 35 37 35 37 34 38 28 34 38 45 46 35 52 24 19 40 56 48 59 66 63 51 42 36 24 20 17 19 18 17 32 54 65 62 66 63 56 54 60 61 66 77 78
39 39 45 60 43 38 37 37 42 44 47 57 35 43 20 46 81 70 61 69 84 81 68 53 30 33 25 16 18 17 18 27 47 65 64 66 60 57 54 59 62 77 85 79
33 28 36 36 36 37 36 44 40 43 52 66 33 33 34 75 96 86 84 70 82 94 85 70 69 58 49 49 42 34 30 29 45 70 71 70 65 61 62 81 87 91 95 96
24 33 37 40 42 36 46 47 41 44 48 34 25 32 78 58 71 94 95 94 93 95 95 86 83 81 77 74 79 87 90 95 99 98 97 89 80 87 90 93 98 100 100 100
24 39 37 38 40 55 52 54 54 69 44 46 32 35 74 47 48 68 79 88 87 95 96 95 88 87 84 81 75 75 78 84 89 94 94 98 99 99 98 98 100 100 100 98
31 30 25 26 39 48 86 64 56 76 50 62 32 44 55 46 51 69 95 82 98 95 96 96 93 90 89 88 84 78 72 76 82 84 84 80 83 82 86 86 85 89 91 90
39 45 30 30 43 47 50 44 58 71 80 65 35 76 79 80 78 75 97 97 99 95 96 96 98 97 91 92 85 83 79 75 75 76 76 72 73 74 75 77 76 78 77 77
41 48 35 34 45 44 41 51 55 56 59 65 62 89 100 99 98 95 96 99 99 98 97 98 99 99 95 92 90 86 91 85 77 76 75 76 76 76 76 75 76 79 80 75
46 51 52 35 31 37 44 54 61 79 67 60 71 96 95 100 100 99 95 100 100 100 98 96 97 95 88 89 88 89 91 93 82 78 78 78 80 80 80 80 82 88 78 76
48 54 60 47 51 42 53 50 58 67 81 96 92 92 94 98 97 94 100 98 98 98 98 96 95 96 95 93 95 93 95 97 96 85 84 86 81 77 78 80 87 84 84 83
53 50 66 59 71 72 71 56 60 62 87 90 88 91 91 96 96 98 96 96 99 98 97 96 95 96 97 98 99 99 99 99 95 89 86 85 83 84 82 82 83 82 83 82
46 53 51 48 44 71 91 62 71 87 79 78 90 87 97 97 96 100 100 98 98 97 96 96 97 96 97 97 98 99 100 98 92 91 89 86 88 80 81 80 80 82 84 84
50 57 53 54 53 77 85 60 52 65 84 72 90 80 98 86 71 66 69 93 92 93 90 92 93 93 94 94 94 93 94 90 89 85 84 84 82 82 83 82 78 80 84 88
59 60 58 48 46 99 92 96 83 85 81 83 76 90 90 72 68 70 68 67 75 79 78 80 79 84 89 94 96 91 84 82 81 79 80 81 83 79 81 80 79 83 88 93
60 64 60 54 55 85 96 75 94 92 85 92 91 91 76 83 69 60 64 67 68 68 71 73 79 84 90 94 92 90 86 82 82 80 80 81 82 80 79 81 84 86 87 90
54 62 62 63 52 91 78 61 73 88 87 71 72 70 61 69 69 64 63 60 60 64 70 73 78 84 90 96 92 91 91 89 88 90 86 83 85 81 81 83 86 86 85 86
58 62 64 56 58 63 74 58 65 71 90 71 68 75 67 51 64 67 68 60 58 62 69 73 74 82 92 98 98 95 98 99 100 100 95 87 86 84 86 85 86 85 83 81
65 63 65 59 56 76 64 54 70 96 96 71 68 76 71 72 74 72 62 58 62 66 72 75 73 81 91 96 98 96 98 99 100 100 100 100 98 90 92 91 89 86 87 86
63 61 65 59 62 75 58 51 69 88 73 69 67 71 77 74 70 66 61 60 66 74 80 81 79 80 86 92 94 94 97 99 98 100 100 100 99 100 99 98 96 92 90 90
76 61 60 65 82 72 63 74 72 66 70 71 70 66 65 64 63 61 62 60 68 81 84 85 85 84 85 90 92 93 96 95 95 97 97 97 98 98 97 98 97 93 94 90
70 63 70 70 78 72 68 63 62 60 68 66 63 60 58 62 58 56 56 59 66 79 80 84 84 84 86 88 88 91 92 87 90 93 93 95 95 97 96 97 97 96 96 94
56 62 84 88 86 77 69 68 64 67 65 68 64 61 58 55 58 56 56 59 61 66 73 79 82 84 85 84 83 86 89 84 86 86 88 91 87 93 93 97 100 99 99 99
56 76 77 85 90 80 82 78 67 72 69 63 62 62 62 60 58 58 59 62 64 66 68 71 78 84 88 87 88 92 94 89 90 87 89 91 89 89 89 89 91 96 98 99

GFSCGP_925_rhum_135.txt.gz
RH
19 19 15 16 18 17 16 15 14 11 11 17 18 17 14 12 12 26 27 29 32 34 32 34 34 20 14 15 14 15 14 14 27 64 74 75 67 65 67 64 69 68 89 94
22 24 20 21 19 21 20 19 16 14 16 16 18 19 15 13 30 31 32 35 36 38 40 40 42 40 36 30 18 16 17 17 17 53 68 73 68 64 64 62 62 69 76 94
22 17 25 24 20 21 20 20 19 20 18 17 20 22 11 19 33 34 34 36 36 42 50 51 51 51 50 44 31 18 17 18 17 19 61 68 69 64 72 58 58 67 68 93
24 24 24 23 23 22 26 18 23 24 28 32 21 34 18 28 37 39 42 47 46 47 54 60 66 67 58 56 35 26 17 18 19 18 50 64 67 62 65 58 64 67 74 85
30 29 30 39 30 26 26 24 29 31 35 33 28 31 20 36 44 45 50 61 60 58 55 63 73 80 69 65 63 40 21 18 19 20 38 59 67 62 55 54 59 60 72 77
21 18 23 24 26 27 27 34 31 29 34 45 25 23 34 50 50 54 57 64 66 65 60 59 74 85 82 74 74 75 64 20 20 20 34 58 66 60 51 54 53 60 65 73
18 22 25 28 30 28 32 34 34 35 46 31 20 25 62 44 42 55 60 65 73 67 68 70 75 90 96 91 84 80 84 84 89 70 64 60 64 65 51 52 54 63 73 76
16 36 26 28 35 39 42 38 42 52 33 33 24 39 58 40 39 50 54 60 70 73 74 75 77 93 97 98 96 96 89 94 98 100 97 97 84 76 58 53 65 76 86 84
19 24 20 19 26 35 56 56 34 54 38 42 28 47 41 45 47 57 69 69 86 79 88 91 87 94 98 99 99 98 97 92 94 98 98 100 98 100 97 98 97 100 100 99
26 30 17 22 28 32 38 31 48 54 69 56 28 66 73 80 73 69 96 94 94 83 85 94 98 97 99 99 100 100 100 94 93 93 97 96 94 96 100 93 84 84 86 86
28 35 29 24 33 28 29 48 45 41 44 55 59 87 96 86 79 87 80 100 99 100 98 99 98 99 99 99 100 100 99 99 91 94 92 93 93 87 87 87 95 87 84 77
34 38 37 24 24 27 32 40 42 84 54 82 55 95 75 78 79 74 80 98 100 100 100 99 98 98 98 99 99 98 99 97 86 92 90 93 90 91 82 81 79 81 81 74
38 44 50 40 36 31 41 45 41 48 61 69 88 94 71 76 77 72 90 91 93 97 98 99 98 97 97 98 99 99 100 100 99 89 92 86 85 76 86 82 79 73 76 75
47 40 53 46 65 53 48 43 43 53 87 94 87 94 98 100 99 98 91 88 98 98 96 94 94 96 98 98 98 99 99 99 99 96 93 90 84 80 80 79 76 74 76 72
45 43 38 34 30 45 63 53 55 74 82 69 81 80 91 96 96 100 100 94 92 90 87 90 92 93 90 94 98 99 100 99 98 96 90 87 80 77 78 75 74 76 76 77
41 48 39 40 35 68 67 54 45 53 62 80 69 81 67 69 53 54 56 78 83 84 82 76 74 77 81 85 86 87 85 88 87 92 89 80 81 73 74 77 74 77 78 81
48 45 44 47 40 85 88 83 72 65 66 62 72 78 72 63 56 55 54 54 58 63 67 69 70 75 82 86 86 85 87 80 84 78 84 84 77 76 76 75 78 77 79 80
48 50 50 43 62 86 89 69 65 92 79 87 78 79 66 60 55 51 50 53 54 54 58 62 68 76 85 88 89 86 86 84 86 85 81 78 76 76 80 77 77 79 78 78
40 45 57 52 44 82 62 49 65 77 84 60 66 60 50 45 61 73 52 49 50 52 57 61 64 74 86 92 92 91 91 92 95 97 91 86 85 78 83 81 80 77 78 79
43 46 52 47 47 63 70 47 51 57 90 61 59 62 59 46 66 65 57 50 50 54 60 63 64 73 86 95 94 94 95 96 99 100 99 97 94 86 88 88 87 80 77 78
60 57 60 48 46 68 48 46 54 83 92 61 58 67 63 69 70 63 53 50 55 61 66 68 67 73 84 91 94 93 94 97 100 98 98 98 99 95 95 92 91 85 84 84
52 54 58 46 48 64 48 45 67 82 64 59 59 65 71 65 58 54 51 51 60 70 76 74 74 74 78 84 93 92 94 97 96 95 97 97 96 96 97 96 94 92 91 90
62 50 61 56 84 58 53 65 57 56 62 63 60 54 54 56 52 50 51 51 66 76 84 80 80 78 80 81 86 90 93 88 92 94 96 93 94 95 94 98 96 94 93 92
56 48 60 62 59 54 54 53 54 55 60 54 51 49 47 51 49 47 47 49 58 73 81 82 80 80 84 86 80 87 89 83 87 92 92 91 93 93 93 96 96 96 95 94
45 50 69 79 63 58 55 56 63 62 63 56 51 49 48 47 48 46 47 50 52 57 64 76 80 82 84 81 81 86 89 83 87 91 91 90 89 92 91 92 99 96 100 97
42 71 70 82 76 69 66 60 56 62 57 54 55 53 51 49 47 47 48 51 52 55 58 63 73 78 83 83 87 91 94 92 90 86 88 94 92 91 89 88 86 88 94 99

GFSCGP_925_rhum_138.txt.gz
RH
18 23 19 15 17 17 16 13 12 10 8 13 15 14 11 21 28 32 32 35 35 35 33 38 43 47 53 60 60 59 53 52 17 22 36 65 68 73 69 65 66 69 80 78
20 22 18 18 16 16 16 17 16 12 11 13 14 14 19 31 33 33 38 42 43 43 43 42 44 49 61 68 66 61 63 67 38 19 21 57 66 74 70 71 71 67 83 71
19 17 20 21 17 16 16 18 17 17 15 14 15 16 34 30 28 33 37 42 47 50 51 48 48 52 62 70 73 70 71 68 53 21 20 20 62 68 70 72 71 74 85 80
19 18 21 18 18 16 22 14 19 20 22 28 18 30 18 30 34 39 42 47 53 54 52 52 53 56 59 72 83 80 80 77 71 23 21 23 36 70 70 69 70 72 76 92
25 25 26 28 24 21 23 19 23 24 27 32 28 26 30 34 46 49 48 50 56 56 57 59 59 62 61 71 87 88 88 84 82 82 28 24 29 50 68 71 70 66 74 83
19 15 18 19 20 21 21 27 28 28 32 47 29 25 53 49 54 56 54 57 61 60 61 64 71 72 72 76 90 97 93 92 91 94 90 65 32 34 66 66 71 65 74 99
19 17 16 20 26 21 28 32 38 34 50 51 24 29 53 46 49 58 63 65 67 64 70 76 80 85 84 83 89 98 99 98 96 98 99 96 74 51 48 70 71 65 73 79
21 29 22 23 29 29 34 33 40 53 39 38 23 45 66 44 45 54 58 65 68 71 74 83 87 94 95 92 95 98 100 100 99 100 100 96 82 84 81 83 68 64 65 76
18 20 20 24 17 27 39 45 36 42 37 48 32 62 51 49 54 59 70 72 86 78 80 87 89 96 92 94 98 99 99 100 100 99 100 99 97 95 89 94 86 65 63 75
21 26 19 15 18 22 30 25 38 48 60 46 36 71 75 76 72 72 90 92 86 83 86 90 94 98 96 97 99 100 100 100 100 99 100 100 100 100 95 99 91 99 86 89
22 28 24 20 24 24 38 40 43 36 41 48 55 79 83 75 75 78 75 96 91 94 96 96 97 96 98 97 100 100 100 100 100 100 100 100 100 100 92 96 97 97 100 91
28 29 35 26 22 21 24 33 33 55 46 58 71 95 67 65 68 68 73 81 89 88 91 90 92 96 95 97 98 100 100 99 99 100 99 100 100 100 98 93 100 92 96 96
34 42 50 30 27 24 31 38 33 38 44 63 86 93 76 75 73 68 84 84 84 77 87 87 85 97 98 98 98 100 99 100 99 100 100 100 100 100 100 100 100 99 91 89
38 41 48 60 63 48 57 44 39 44 62 76 90 96 94 100 99 98 90 88 84 76 83 85 85 85 87 94 99 100 99 99 99 99 98 99 100 100 100 100 99 99 97 98
46 48 37 30 25 40 45 40 49 55 56 70 90 82 86 94 90 100 95 86 79 78 73 79 82 81 82 86 88 90 96 99 100 100 100 100 96 100 97 100 96 99 94 96
42 54 34 36 28 63 56 43 39 48 54 62 85 87 64 59 50 50 51 66 70 71 70 63 65 75 82 84 89 88 86 92 98 95 98 99 97 95 90 97 91 98 96 94
46 53 41 50 44 72 80 77 63 61 61 67 72 73 64 59 53 53 53 51 54 58 60 61 63 73 85 90 93 90 89 88 92 94 90 95 91 87 90 86 84 82 85 88
42 43 43 66 64 73 86 60 61 89 77 86 72 76 64 52 52 50 49 51 52 53 56 58 64 76 86 87 92 90 90 92 93 93 94 92 94 92 93 92 88 81 80 84
38 41 56 58 55 74 57 56 62 64 74 57 59 56 50 43 54 76 50 47 50 53 58 60 62 74 86 90 93 90 91 92 95 96 95 96 94 93 93 93 91 86 84 87
35 42 52 50 52 62 62 41 42 49 85 53 53 60 59 49 65 78 54 48 52 58 63 65 65 76 86 92 92 92 94 94 98 99 98 97 97 95 94 95 91 90 89 89
62 57 63 56 50 68 43 44 48 74 87 57 57 63 61 70 69 58 49 49 57 65 71 72 72 78 84 89 92 91 94 97 99 100 98 99 99 97 98 94 93 92 92 93
57 58 60 53 49 81 40 52 66 82 60 56 60 64 65 60 54 50 48 52 60 69 74 76 79 81 83 87 89 92 95 94 96 96 96 100 98 99 99 95 96 94 93 93
67 50 67 65 80 58 56 64 55 51 59 56 55 52 54 52 48 47 49 52 66 72 77 77 85 85 84 87 87 92 94 90 91 94 96 97 94 96 99 98 94 92 92 92
54 44 69 61 55 54 56 52 51 52 53 48 46 45 45 50 46 46 45 48 67 69 81 81 82 86 89 87 88 94 97 89 92 90 94 92 94 93 95 99 96 96 97 94
42 48 69 66 59 55 52 57 57 57 52 48 46 46 46 44 45 44 46 47 50 55 64 74 80 84 86 85 89 94 97 94 94 87 92 93 89 92 92 92 98 98 98 98
42 68 73 81 67 62 66 62 56 59 55 51 50 49 48 46 45 45 47 49 49 52 55 67 73 79 86 84 88 93 96 95 93 87 92 95 90 89 90 91 88 88 97 91